Location: Gudip?du
(17.0263°N, 80.8301°E)
Time: 16:12:04
(UTC+00:00)

Meteor 2-1 Rocket - Pass Details

Date: 03 August 2024
Orbit: 825 x 910 km, 81.3° (Epoch: 12 September)

Event Time Altitude Azimuth Distance (km) Brightness Sun altitude
Rises 13:55:40 0° 354° (N) 3,356 7.7 -11.4°
Reaches altitude 10° 13:58:04 10° 354° (N) 2,424 7.0 -12.0°
Maximum altitude 14:03:33 89° 269° (W) 834 4.2 -13.2°
Drops below altitude 10° 14:09:05 10° 175° (S) 2,450 6.3 -14.4°
Sets 14:11:31 0° 175° (S) 3,395 7.1 -14.9°
